Location: Barcelona
(41.3830°N, 2.1830°E)
Time: 00:58:27
(UTC+01:00)

ISS - Pass Details

Date: 20 February 2020
Orbit: 415 x 422 km, 51.6° (Epoch: 27 February)

Event Time Altitude Azimuth Distance (km) Brightness Sun altitude
Rises 06:37:34 0° 196° (SSW) 2,349 -0.1 -12.4°
Reaches altitude 10° 06:40:06 10° 176° (S) 1,492 -0.9 -12.0°
Maximum altitude 06:42:26 18° 132° (SE) 1,117 -0.9 -11.5°
Drops below altitude 10° 06:44:47 10° 88° (E) 1,503 0.6 -11.1°
Sets 06:47:20 0° 68° (ENE) 2,373 1.3 -10.6°
